User: anonymous   Login
Location: Unspecified
(0.0000°N, 0.0000°E)
Time: 15:53:28
(UTC+00:00)
Language:

ESSA 1 - Orbit

View from above orbital plane
View from above orbital plane
View from above satellite
View from above satellite

Ground track
Ground track

The orbit data is extracted from the following two-line orbital elements,

1  1982U 66008A   19015.95200027 +.00000029 +00000-0 +18726-4 0  9990
2  1982 097.7965 193.6956 0081840 171.5869 188.6720 14.46880736766044
Epoch (UTC): 15 January 2019 22:50:52
Eccentricity: 0.0081840
inclination: 97.7965°
perigee height: 677 km
apogee height: 794 km
right ascension of ascending node: 193.6956°
argument of perigee: 171.5869°
revolutions per day: 14.46880736
mean anomaly at epoch: 188.6720°
orbit number at epoch: 76604

The dashed part of the orbit path shows where the satellite is in the earth's shadow,  

DLR